Location: Newark
(34.6283°N, 36.0776°E)
Time: 16:10:19
(UTC+00:00)

A-11 Canister half - Pass Details

Date: 25 September 2019
Orbit: 1527 x 1682 km, 47.3° (Epoch: 15 October)

Event Time Altitude Azimuth Distance (km) Brightness Sun altitude
Rises 00:30:39 0° 244° (WSW) 4,669 - -35.5°
Reaches altitude 10° 00:33:42 10° 247° (WSW) 3,692 - -34.9°
Exits shadow 00:42:03 65° 299° (WNW) 1,677 8.9 -33.4°
Maximum altitude 00:42:58 68° 330° (NNW) 1,648 9.0 -33.2°
Drops below altitude 10° 00:52:30 10° 53° (NE) 3,785 11.9 -31.5°
Sets 00:55:40 0° 56° (NE) 4,793 12.7 -30.9°
